N8PFF Weather Reports


time (UTC)temp
F
wind
direction
speed
knots
gust
knots
rain 1hr
in
rain 24hr
in
rain mn
in
humidity
%
barometer
mb
20260507004530 54 356 2.6 6.1 0.00 0.57 0.46 61 1013.4
20260507003036 54 307 0.9 5.2 0.00 0.57 0.46 62 1013.1
20260507001550 55 326 1.7 5.2 0.00 0.57 0.46 60 1012.9
20260507000003 55 323 0.9 6.1 0.00 0.57 0.46 60 1012.9
20260506234533 56 323 2.6 7.0 0.00 0.61 0.46 57 1012.9
20260506233032 56 309 2.6 8.7 0.00 0.61 0.46 57 1012.9
20260506231556 56 281 3.5 10.4 0.00 0.61 0.46 57 1013.2
20260506230057 56 331 4.3 8.7 0.00 0.61 0.46 58 1013.4
20260506224555 57 301 3.5 7.8 0.00 0.61 0.46 57 1013.3
20260506223058 57 300 3.5 10.4 0.00 0.61 0.46 56 1012.8
20260506221513 58 330 1.7 9.6 0.00 0.61 0.46 57 1012.5
20260506220031 59 293 2.6 9.6 0.00 0.61 0.46 56 1012.4
20260506214537 59 324 4.3 7.8 0.00 0.61 0.46 53 1012.1
20260506213104 59 340 0.9 7.8 0.00 0.61 0.46 54 1011.9
20260506211632 60 298 1.7 7.8 0.00 0.61 0.46 55 1011.9
20260506210010 60 311 2.6 7.8 0.00 0.61 0.46 52 1011.7
20260506204529 60 335 3.5 8.7 0.00 0.61 0.46 51 1011.6
20260506203045 61 231 4.3 11.3 0.00 0.61 0.46 50 1011.5
20260506201609 61 263 4.3 7.8 0.00 0.61 0.46 51 1011.6
20260506200017 61 307 3.5 9.6 0.00 0.61 0.46 56 1011.5
20260506194529 60 284 1.7 7.8 0.00 0.61 0.46 54 1011.5
20260506193033 60 295 2.6 6.1 0.00 0.61 0.46 56 1011.5
20260506191528 59 274 2.6 7.0 0.00 0.61 0.46 60 1011.7
20260506190037 59 313 2.6 12.2 0.00 0.61 0.46 56 1011.9
20260506184549 59 311 2.6 9.6 0.00 0.61 0.46 57 1011.9
20260506183101 59 282 0.9 7.8 0.00 0.61 0.46 60 1011.8
20260506181509 58 275 1.7 8.7 0.00 0.61 0.46 61 1011.7
20260506180022 58 296 2.6 7.8 0.00 0.61 0.46 64 1011.9
20260506174530 58 339 2.6 6.1 0.00 0.61 0.46 66 1011.7
20260506173049 58 348 0.9 7.0 0.00 0.61 0.46 68 1011.7
20260506171553 57 271 3.5 6.1 0.00 0.61 0.46 68 1012.0
20260506170114 56 287 2.6 8.7 0.00 0.61 0.46 72 1012.0
20260506164506 55 289 4.3 7.0 0.00 0.61 0.46 76 1011.7
20260506163015 56 289 0.9 6.1 0.00 0.61 0.46 78 1011.8
20260506161534 54 299 1.7 7.8 0.00 0.61 0.46 78 1011.8
20260506160041 53 120 3.5 8.7 0.00 0.61 0.46 79 1011.8
20260506154542 53 292 1.7 8.7 0.00 0.61 0.46 84 1011.5
20260506153046 52 300 1.7 5.2 0.00 0.61 0.46 85 1011.5
20260506151501 52 285 2.6 7.0 0.00 0.61 0.46 86 1011.3
20260506150054 51 337 1.7 6.1 0.00 0.61 0.46 88 1010.9
20260506144501 50 293 3.5 8.7 0.00 0.61 0.46 90 1010.8
20260506143020 50 299 0.9 5.2 0.00 0.61 0.46 94 1010.7
20260506141525 49 301 1.7 5.2 0.00 0.61 0.46 95 1010.3
20260506140038 49 302 1.7 6.1 0.00 0.61 0.46 96 1010.0
20260506134559 48 297 2.6 7.0 0.00 0.61 0.46 96 1010.2
20260506133003 48 303 2.6 7.0 0.00 0.61 0.46 97 1009.9
20260506131522 48 324 0.0 4.3 0.01 0.61 0.46 98 1009.6
20260506130041 47 91 0.0 4.3 0.01 0.61 0.46 98 1009.7
20260506124548 46 290 0.9 5.2 0.01 0.61 0.46 98 1009.5
20260506123051 46 307 0.9 4.3 0.02 0.61 0.46 98 1009.3
20260506121510 46 302 2.6 5.2 0.01 0.60 0.45 97 1009.2
20260506120039 46 323 0.9 9.6 0.01 0.60 0.45 97 1009.2
20260506114535 46 289 3.5 6.1 0.01 0.60 0.45 97 1008.6
20260506113041 46 287 2.6 6.1 0.00 0.59 0.44 97 1008.1
20260506111548 46 313 0.0 4.3 0.00 0.59 0.44 98 1007.9
20260506110055 46 297 0.9 5.2 0.00 0.59 0.44 98 1008.1
20260506104510 46 271 2.6 6.1 0.00 0.59 0.44 98 1007.7
20260506103048 46 317 0.9 4.3 0.01 0.59 0.44 97 1006.8
20260506101551 47 300 1.7 7.0 0.04 0.59 0.44 97 1007.0
20260506100010 47 287 1.7 9.6 0.08 0.59 0.44 97 1006.8
20260506094513 47 89 3.5 8.7 0.11 0.59 0.44 97 1006.7
20260506093027 48 332 1.7 7.0 0.15 0.57 0.43 97 1006.4
20260506091535 49 48 1.7 7.0 0.14 0.55 0.40 97 1006.9
20260506090046 50 45 2.6 9.6 0.11 0.51 0.36 97 1006.7
20260506084556 51 310 4.3 8.7 0.11 0.48 0.33 97 1006.4
20260506083054 53 284 3.5 13.0 0.10 0.43 0.28 95 1006.0
20260506081505 57 146 0.0 2.6 0.11 0.41 0.26 99 1005.2
20260506073038 58 173 0.0 3.5 0.09 0.33 0.18 98 1005.4
20260506071540 58 137 0.9 1.7 0.07 0.30 0.15 98 1005.6
20260506061531 58 320 0.0 0.0 0.01 0.23 0.08 98 1006.1
20260506044545 59 87 0.0 0.0 0.08 0.21 0.06 97 1006.9
20260506043057 59 125 0.0 0.0 0.07 0.19 0.04 97 1007.2
20260506041559 59 146 0.0 1.7 0.07 0.17 0.02 97 1007.5
20260506040016 59 264 0.0 0.0 0.06 0.15 0.00 97 1007.8
20260506034526 59 198 0.0 0.9 0.07 0.13 0.13 97 1007.7
20260506033038 59 276 0.0 0.0 0.07 0.12 0.12 97 1007.7
20260506031548 59 276 0.0 0.0 0.06 0.10 0.10 97 1007.7
20260506030055 59 276 0.0 0.0 0.06 0.09 0.09 96 1007.6
20260506024519 59 276 0.0 0.0 0.03 0.06 0.06 96 1007.7
20260506023024 59 276 0.0 0.0 0.01 0.04 0.04 96 1007.7
20260506021521 59 276 0.0 0.9 0.01 0.04 0.04 95 1007.6
20260506020029 60 290 0.0 1.7 0.00 0.03 0.03 95 1007.6
20260506014539 60 43 0.0 1.7 0.00 0.03 0.03 95 1007.2
20260506013106 60 260 0.0 0.9 0.00 0.03 0.03 95 1007.7
20260506011506 60 236 0.0 1.7 0.00 0.03 0.03 94 1007.6
20260506010023 60 203 0.0 0.9 0.00 0.03 0.03 94 1007.6